Regional Weather Roundup
Issued by NWS Upton, NY

Current Version | Previous Version | Text Only | Print | Product List | Glossary On
Versions: 1 2 3 4 5 6 7 8 9 10 11 12 13 14 15 16 17 18 19 20 21 22 23 24 25 26 27 28 29 30 31 32 33 34 35 36 37 38 39 40 41 42 43 44 45 46 47 48 49 50
000 ASUS41 KOKX 261418 RWROKX REGIONAL WEATHER ROUNDUP NATIONAL WEATHER SERVICE NEW YORK NY 1000 AM EDT TUE MAY 26 2015 NOTE: "FAIR" INDICATES FEW OR NO CLOUDS BELOW 12,000 FEET WITH NO SIGNIFICANT WEATHER AND/OR OBSTRUCTIONS TO VISIBILITY. NYZ071-072-176-178-NJZ106-104-261500- NEW YORK CITY METRO AREA CITY SKY/WX TMP DP RH WIND PRES REMARKS CENTRAL PARK SUNNY 75 59 57 MISG 30.23F LAGUARDIA APRT MOSUNNY 76 58 53 SW13 30.20F KENNEDY INTL MOSUNNY 72 59 63 S9 30.23F NEWARK/LIBERTY MOSUNNY 77 60 55 SW12 30.20F BRNX BOT. GARD N/A 77 59 53 S5 30.20F TETERBORO SUNNY 76 59 55 SW13 30.19F $$ NYZ177-179-078>081-261500- LONG ISLAND NEW YORK CITY SKY/WX TMP DP RH WIND PRES REMARKS FARMINGDALE SUNNY 72 61 68 SW12 30.23F ISLIP MOSUNNY 71 60 68 S14 30.22F SHIRLEY SUNNY 69 60 73 SW14 30.24F WESTHAMPTON MOSUNNY 66 59 78 SW13G20 30.25F MONTAUK POINT N/A 65 58 78 SW13G22 30.24F $$ NYZ052-065-067-261500- HUDSON VALLEY CITY SKY/WX TMP DP RH WIND PRES REMARKS WHITE PLAINS SUNNY 75 59 57 VRB7 30.20F NEWBURGH MOSUNNY 75 63 64 W7 30.20F MONTGOMERY CLOUDY 75 63 66 SW9 30.18S POUGHKEEPSIE MOSUNNY 75 60 59 SW7 30.17S ALBANY CLOUDY 76 61 59 S10 30.14S $$ NJZ001-105-106-008-010-013-015-019>022-104-261500- NEW JERSEY CITY SKY/WX TMP DP RH WIND PRES REMARKS NEWARK/LIBERTY MOSUNNY 77 60 55 SW12 30.20F TETERBORO SUNNY 76 59 55 SW13 30.19F CALDWELL SUNNY 74 58 57 VRB6 30.20F MORRISTOWN MOSUNNY 75 61 60 SW13G18 N/A SOMERVILLE SUNNY 76 60 57 S8 30.19F SUSSEX MOSUNNY 74 60 61 SW7 30.21F ANDOVER N/A 74 60 61 VRB5 30.21S TRENTON SUNNY 77 61 57 S10 30.22F MILLVILLE SUNNY 76 64 66 W9 30.25F ATLANTIC CITY SUNNY 76 62 62 SW12 30.26S WRIGHTSTOWN SUNNY 78 62 57 SW10 30.21F TOMS RIVER SUNNY N/A N/A N/A SW9 30.24S BELMAR SUNNY 77 59 53 SW9 30.24F $$ PAZ047>061-062-071-261500- EASTERN PENNSYLVANIA CITY SKY/WX TMP DP RH WIND PRES REMARKS PHILADELPHIA MOSUNNY 77 61 57 SW10 30.24S ALLENTOWN SUNNY 77 60 55 SW8 30.21F SCRANTON PTSUNNY 76 58 53 SW9 30.20F $$ CTZ002-004>006-009-010-012-RIZ004-006-007-MAZ004-011-015-261500- SOUTHERN NEW ENGLAND IN CT CITY SKY/WX TMP DP RH WIND PRES REMARKS BRADLEY INTL PTSUNNY 75 57 53 S12 30.17S HARTFORD MOSUNNY 74 59 59 S12 30.19R DANBURY SUNNY 74 58 57 S9 30.21F WTRBRY/OXFORD MOSUNNY 73 59 60 SW6 30.21F BRIDGEPORT SUNNY 70 59 68 SW10 30.20F MERIDEN SUNNY 75 58 55 S10 30.19F NEW HAVEN MOSUNNY 68 58 70 SW8 30.21F CHESTER FAIR 72 61 68 SW10G16 30.22S GROTON SUNNY 66 59 78 SW8 30.22F WILLIMANTIC MOSUNNY 75 58 55 SW10 30.20S IN RI CITY SKY/WX TMP DP RH WIND PRES REMARKS PROVIDENCE PTSUNNY 74 58 57 SW10 30.20F BLOCK ISLAND SUNNY 63 55 77 SW21G28 30.25S WESTERLY SUNNY 68 58 70 SW8G18 30.24S IN MA CITY SKY/WX TMP DP RH WIND PRES REMARKS BOSTON PTSUNNY 77 59 53 SW14G23 30.15F WORCESTER MOSUNNY 72 57 59 SW14 30.19S WESTFIELD PTSUNNY 72 57 59 SE6 30.17S PROVINCETOWN MOSUNNY 64 55 72 SW21G28 30.19F NANTUCKET MOSUNNY 65 57 75 SW17 30.27S $$ ANZ330-335-338-340-345-350-353-355-261500- COASTAL MARINE OBSERVATIONS STATION/POSITION TIME SKY/WX TEMP WIND PRES VSBY WAVE AIR SEA DIR/SP/G HT/PER (UTC) (F) (DEG/KT/KT) (MB) (MI) (FT/S) NY HARB ENTRANCE 1350 59 57 190/ 12/ 14 1023.6 3/ 5 4S FIRE IS 1303 54 N/A 3/ 5 20S FIRE ISLAND 1350 58 55 210/ 14/ 16 1024.2 3/ 6 GREAT SOUTH BAY 1300 61 64 240/ 12/ 16 N/A 23SW MTP 1350 57 53 220/ 14/ 17 1024.3 3/ 5 HUDSON CANYON NOT AVBL KINGS POINT 1300 69 55 230/ 8/ 10 1022.9 CENTRAL LI SOUND 1300 60 54 200/ 8/ 10 N/A EASTERN LI SOUND 1300 58 210/ 12/ 16 N/A ROBBINS REEF 1300 70 250/ 12/ 15 1022.6 $$ >>>>>>>>>>>>>>>>>>>>>>>>>>>> KEY <<<<<<<<<<<<<<<<<<<<<<<<<<< > < > SKY/WX - SKY CONDITION/PRESENT WEATHER < > TMP - TEMPERATURE IN FAHRENHEIT < > DP - DEWPOINT IN FAHRENHEIT < > RH - RELATIVE HUMIDITY IN PERCENT < > WIND - DIRECTION AND SPEED IN MPH < > PRES - MEAN SEA LEVEL PRESSURE IN INCHES OF HG < > WCI - WIND CHILL INDEX < > VSB - VISIBILITY IN MILES < > HX - HEAT INDEX < > TC - TEMPERATURE IN CELSIUS < > VRB - VARIABLE WIND DIRECTION < > < >>>>>>>>>>>>>>>>>>>>>>>>>>>> KEY <<<<<<<<<<<<<<<<<<<<<<<<<<<

USA.gov is the U.S. government's official web portal to all federal, state and local government web resources and services.